| time (UTC) | temp F | wind direction | speed knots | gust knots | rain 1hr in | rain 24hr in | rain mn in | humidity % | barometer mb |
| 20260904144413 | 93 | 71 | 0.0 | 0.0 | 0.00 | 0.00 | 0.00 | 58 | 1016.1 |
| 20260904143908 | 91 | 50 | 0.0 | 0.9 | 0.00 | 0.00 | 0.00 | 60 | 1016.4 |
| 20260904143405 | 92 | 31 | 0.9 | 0.9 | 0.00 | 0.00 | 0.00 | 61 | 1016.0 |
| 20260904142902 | 91 | 103 | 0.9 | 0.9 | 0.00 | 0.00 | 0.00 | 62 | 1016.0 |
| 20260904142357 | 91 | 101 | 1.7 | 1.7 | 0.00 | 0.00 | 0.00 | 62 | 1016.1 |
| 20260904141856 | 91 | 60 | 0.0 | 0.0 | 0.00 | 0.00 | 0.00 | 65 | 1016.1 |
| 20260904141353 | 90 | 53 | 0.0 | 0.0 | 0.00 | 0.00 | 0.00 | 64 | 1016.0 |
| 20260904140849 | 89 | 48 | 0.0 | 0.0 | 0.00 | 0.00 | 0.00 | 66 | 1015.9 |
| 20260904140349 | 88 | 71 | 0.0 | 0.0 | 0.00 | 0.00 | 0.00 | 66 | 1016.0 |
| 20260904135848 | 87 | 99 | 0.9 | 0.9 | 0.00 | 0.00 | 0.00 | 68 | 1015.8 |
| 20260904135343 | 87 | 13 | 1.7 | 1.7 | 0.00 | 0.00 | 0.00 | 69 | 1016.0 |
| 20260904134839 | 87 | 59 | 0.0 | 0.0 | 0.00 | 0.00 | 0.00 | 69 | 1016.1 |
| 20260904134333 | 87 | 48 | 0.9 | 0.9 | 0.00 | 0.00 | 0.00 | 69 | 1015.9 |
| 20260904133827 | 87 | 43 | 0.9 | 0.9 | 0.00 | 0.00 | 0.00 | 71 | 1015.9 |
| 20260904133323 | 86 | 59 | 0.0 | 0.0 | 0.00 | 0.00 | 0.00 | 73 | 1015.9 |
| 20260904132823 | 85 | 57 | 0.0 | 0.0 | 0.00 | 0.00 | 0.00 | 73 | 1016.0 |
| 20260904132319 | 85 | 51 | 0.0 | 0.0 | 0.00 | 0.00 | 0.00 | 75 | 1015.9 |
| 20260904131818 | 84 | 70 | 0.0 | 0.0 | 0.00 | 0.00 | 0.00 | 76 | 1016.1 |
| 20260904131314 | 84 | 51 | 0.0 | 0.0 | 0.00 | 0.00 | 0.00 | 77 | 1016.0 |
| 20260904130813 | 83 | 51 | 0.0 | 0.0 | 0.00 | 0.00 | 0.00 | 78 | 1015.8 |
| 20260904130314 | 83 | 52 | 0.0 | 0.0 | 0.00 | 0.00 | 0.00 | 79 | 1016.0 |
| 20260904125809 | 82 | 52 | 0.0 | 0.0 | 0.00 | 0.00 | 0.00 | 82 | 1015.8 |
| 20260904125306 | 80 | 52 | 0.0 | 0.0 | 0.00 | 0.00 | 0.00 | 85 | 1015.9 |
| 20260904124804 | 79 | 52 | 0.0 | 0.0 | 0.00 | 0.00 | 0.00 | 87 | 1015.7 |
| 20260904124301 | 78 | 52 | 0.0 | 0.0 | 0.00 | 0.00 | 0.00 | 89 | 1015.7 |
| 20260904123756 | 77 | 52 | 0.0 | 0.0 | 0.00 | 0.00 | 0.00 | 92 | 1015.8 |
| 20260904123251 | 76 | 52 | 0.0 | 0.0 | 0.00 | 0.00 | 0.00 | 94 | 1015.7 |
| 20260904122745 | 75 | 52 | 0.0 | 0.0 | 0.00 | 0.00 | 0.00 | 94 | 1016.0 |
| 20260904122245 | 75 | 52 | 0.0 | 0.0 | 0.00 | 0.00 | 0.00 | 95 | 1015.7 |
| 20260904121740 | 75 | 52 | 0.0 | 0.0 | 0.00 | 0.00 | 0.00 | 95 | 1015.5 |
| 20260904121236 | 74 | 52 | 0.0 | 0.0 | 0.00 | 0.00 | 0.00 | 95 | 1015.5 |
| 20260904120732 | 74 | 52 | 0.0 | 0.0 | 0.00 | 0.00 | 0.00 | 95 | 1015.8 |
| 20260904120228 | 74 | 52 | 0.0 | 0.0 | 0.00 | 0.00 | 0.00 | 95 | 1015.6 |
| 20260904115724 | 74 | 52 | 0.0 | 0.0 | 0.00 | 0.00 | 0.00 | 95 | 1015.4 |
| 20260904115224 | 74 | 52 | 0.0 | 0.0 | 0.00 | 0.00 | 0.00 | 95 | 1015.4 |
| 20260904114719 | 74 | 52 | 0.0 | 0.0 | 0.00 | 0.00 | 0.00 | 95 | 1015.4 |
| 20260904114219 | 74 | 52 | 0.0 | 0.0 | 0.00 | 0.00 | 0.00 | 95 | 1015.4 |
| 20260904113713 | 74 | 52 | 0.0 | 0.0 | 0.00 | 0.00 | 0.00 | 95 | 1015.2 |
| 20260904113212 | 74 | 52 | 0.0 | 0.0 | 0.00 | 0.00 | 0.00 | 95 | 1015.0 |
| 20260904112708 | 74 | 52 | 0.0 | 0.0 | 0.00 | 0.00 | 0.00 | 95 | 1015.2 |
| 20260904112203 | 74 | 52 | 0.0 | 0.0 | 0.00 | 0.00 | 0.00 | 95 | 1015.1 |
| 20260904111700 | 74 | 52 | 0.0 | 0.0 | 0.00 | 0.00 | 0.00 | 95 | 1015.0 |
| 20260904111200 | 74 | 52 | 0.0 | 0.0 | 0.00 | 0.00 | 0.00 | 95 | 1015.0 |
| 20260904110655 | 74 | 52 | 0.0 | 0.0 | 0.00 | 0.00 | 0.00 | 95 | 1015.1 |
| 20260904110154 | 74 | 52 | 0.0 | 0.0 | 0.00 | 0.00 | 0.00 | 95 | 1015.0 |
| 20260904105649 | 74 | 52 | 0.0 | 0.0 | 0.00 | 0.00 | 0.00 | 94 | 1014.7 |
| 20260904105144 | 75 | 52 | 0.0 | 0.0 | 0.00 | 0.00 | 0.00 | 94 | 1014.7 |
| 20260904104640 | 75 | 52 | 0.0 | 0.0 | 0.00 | 0.00 | 0.00 | 94 | 1014.7 |
| 20260904104135 | 75 | 52 | 0.0 | 0.0 | 0.00 | 0.00 | 0.00 | 93 | 1014.6 |
| 20260904103632 | 75 | 52 | 0.0 | 0.0 | 0.00 | 0.00 | 0.00 | 93 | 1014.7 |
| 20260904103127 | 75 | 52 | 0.0 | 0.0 | 0.00 | 0.00 | 0.00 | 93 | 1014.7 |
| 20260904102623 | 75 | 52 | 0.0 | 0.0 | 0.00 | 0.00 | 0.00 | 92 | 1014.8 |
| 20260904102118 | 76 | 52 | 0.0 | 0.0 | 0.00 | 0.00 | 0.00 | 92 | 1014.6 |
| 20260904101615 | 76 | 52 | 0.0 | 0.0 | 0.00 | 0.00 | 0.00 | 92 | 1014.8 |
| 20260904101110 | 76 | 52 | 0.0 | 0.0 | 0.00 | 0.00 | 0.00 | 92 | 1014.4 |
| 20260904100606 | 76 | 52 | 0.0 | 0.0 | 0.00 | 0.00 | 0.00 | 91 | 1014.5 |
| 20260904100100 | 76 | 52 | 0.0 | 0.0 | 0.00 | 0.00 | 0.00 | 91 | 1014.5 |
| 20260904095556 | 76 | 52 | 0.0 | 0.0 | 0.00 | 0.00 | 0.00 | 91 | 1014.6 |
| 20260904095051 | 76 | 52 | 0.0 | 0.0 | 0.00 | 0.00 | 0.00 | 90 | 1014.4 |
| 20260904094551 | 76 | 52 | 0.0 | 0.0 | 0.00 | 0.00 | 0.00 | 90 | 1014.4 |
| 20260904094046 | 77 | 52 | 0.0 | 0.0 | 0.00 | 0.00 | 0.00 | 89 | 1014.4 |
| 20260904093543 | 77 | 52 | 0.0 | 0.0 | 0.00 | 0.00 | 0.00 | 89 | 1014.6 |
| 20260904093043 | 77 | 52 | 0.0 | 0.0 | 0.00 | 0.00 | 0.00 | 89 | 1014.3 |
| 20260904092538 | 77 | 52 | 0.0 | 0.0 | 0.00 | 0.00 | 0.00 | 89 | 1014.1 |
| 20260904092035 | 77 | 52 | 0.0 | 0.0 | 0.00 | 0.00 | 0.00 | 89 | 1014.3 |
| 20260904091531 | 77 | 52 | 0.0 | 0.0 | 0.00 | 0.00 | 0.00 | 89 | 1014.0 |
| 20260904091030 | 77 | 52 | 0.0 | 0.0 | 0.00 | 0.00 | 0.00 | 89 | 1014.1 |
| 20260904090526 | 77 | 52 | 0.0 | 0.0 | 0.00 | 0.00 | 0.00 | 89 | 1014.0 |
| 20260904090022 | 77 | 52 | 0.0 | 0.0 | 0.00 | 0.00 | 0.00 | 89 | 1014.0 |
| 20260904085516 | 77 | 52 | 0.0 | 0.0 | 0.00 | 0.00 | 0.00 | 89 | 1014.1 |
| 20260904085016 | 77 | 52 | 0.0 | 0.0 | 0.00 | 0.00 | 0.00 | 90 | 1014.1 |
| 20260904084512 | 77 | 52 | 0.0 | 0.0 | 0.00 | 0.00 | 0.00 | 90 | 1014.0 |
| 20260904084008 | 77 | 52 | 0.0 | 0.0 | 0.00 | 0.00 | 0.00 | 91 | 1014.0 |
| 20260904083504 | 76 | 52 | 0.0 | 0.0 | 0.00 | 0.00 | 0.00 | 91 | 1014.0 |
| 20260904082959 | 76 | 52 | 0.0 | 0.0 | 0.00 | 0.00 | 0.00 | 91 | 1014.0 |
| 20260904082454 | 76 | 52 | 0.0 | 0.0 | 0.00 | 0.00 | 0.00 | 91 | 1013.9 |
| 20260904081949 | 76 | 52 | 0.0 | 0.0 | 0.00 | 0.00 | 0.00 | 92 | 1014.2 |
| 20260904081444 | 76 | 52 | 0.0 | 0.0 | 0.00 | 0.00 | 0.00 | 92 | 1014.1 |
| 20260904080940 | 76 | 52 | 0.0 | 0.0 | 0.00 | 0.00 | 0.00 | 92 | 1014.0 |
| 20260904080435 | 76 | 52 | 0.0 | 0.0 | 0.00 | 0.00 | 0.00 | 93 | 1014.1 |
| 20260904075931 | 76 | 52 | 0.0 | 0.0 | 0.00 | 0.00 | 0.00 | 93 | 1014.2 |
| 20260904075427 | 76 | 52 | 0.0 | 0.0 | 0.00 | 0.00 | 0.00 | 93 | 1014.2 |
| 20260904074925 | 76 | 52 | 0.0 | 0.0 | 0.00 | 0.00 | 0.00 | 92 | 1014.1 |
| 20260904074421 | 76 | 52 | 0.0 | 0.0 | 0.00 | 0.00 | 0.00 | 93 | 1014.1 |
| 20260904073916 | 76 | 52 | 0.0 | 0.0 | 0.00 | 0.00 | 0.00 | 93 | 1014.2 |
| 20260904073412 | 76 | 52 | 0.0 | 0.0 | 0.00 | 0.00 | 0.00 | 93 | 1014.0 |
| 20260904072907 | 76 | 52 | 0.0 | 0.0 | 0.00 | 0.00 | 0.00 | 93 | 1014.1 |
| 20260904072402 | 76 | 52 | 0.0 | 0.0 | 0.00 | 0.00 | 0.00 | 93 | 1014.2 |
| 20260904071858 | 76 | 52 | 0.0 | 0.0 | 0.00 | 0.00 | 0.00 | 92 | 1014.2 |
| 20260904071353 | 76 | 52 | 0.0 | 0.0 | 0.00 | 0.00 | 0.00 | 92 | 1014.3 |
| 20260904070848 | 76 | 52 | 0.0 | 0.0 | 0.00 | 0.00 | 0.00 | 92 | 1014.1 |
| 20260904070346 | 76 | 52 | 0.0 | 0.0 | 0.00 | 0.00 | 0.00 | 91 | 1014.3 |
| 20260904065841 | 76 | 52 | 0.0 | 0.0 | 0.00 | 0.00 | 0.00 | 91 | 1014.3 |
| 20260904065338 | 77 | 52 | 0.0 | 0.0 | 0.00 | 0.00 | 0.00 | 90 | 1014.1 |
| 20260904064832 | 77 | 52 | 0.0 | 0.0 | 0.00 | 0.00 | 0.00 | 90 | 1014.2 |
| 20260904064328 | 77 | 52 | 0.0 | 0.0 | 0.00 | 0.00 | 0.00 | 90 | 1014.2 |
| 20260904063819 | 77 | 52 | 0.0 | 0.0 | 0.00 | 0.00 | 0.00 | 90 | 1014.2 |
| 20260904063315 | 77 | 52 | 0.0 | 0.0 | 0.00 | 0.00 | 0.00 | 90 | 1014.2 |
| 20260904062810 | 77 | 52 | 0.0 | 0.0 | 0.00 | 0.00 | 0.00 | 90 | 1014.2 |
| 20260904062306 | 77 | 52 | 0.0 | 0.0 | 0.00 | 0.00 | 0.00 | 90 | 1014.2 |
| 20260904061801 | 77 | 52 | 0.0 | 0.0 | 0.00 | 0.00 | 0.00 | 90 | 1014.4 |
| 20260904061257 | 77 | 52 | 0.0 | 0.0 | 0.00 | 0.00 | 0.00 | 90 | 1014.3 |
| 20260904060754 | 77 | 52 | 0.0 | 0.0 | 0.00 | 0.00 | 0.00 | 90 | 1014.4 |
| 20260904060249 | 77 | 52 | 0.0 | 0.0 | 0.00 | 0.00 | 0.00 | 90 | 1014.5 |
| 20260904055744 | 77 | 52 | 0.0 | 0.0 | 0.00 | 0.00 | 0.00 | 90 | 1014.4 |
| 20260904055244 | 77 | 52 | 0.0 | 0.0 | 0.00 | 0.00 | 0.00 | 90 | 1014.4 |
| 20260904054740 | 77 | 52 | 0.0 | 0.0 | 0.00 | 0.00 | 0.00 | 90 | 1014.4 |
| 20260904054236 | 77 | 52 | 0.0 | 0.0 | 0.00 | 0.00 | 0.00 | 90 | 1014.6 |
| 20260904053731 | 77 | 52 | 0.0 | 0.0 | 0.00 | 0.00 | 0.00 | 90 | 1014.6 |
| 20260904053230 | 77 | 52 | 0.0 | 0.0 | 0.00 | 0.00 | 0.00 | 90 | 1014.4 |
| 20260904052727 | 77 | 52 | 0.0 | 0.0 | 0.00 | 0.00 | 0.00 | 90 | 1014.3 |
| 20260904052223 | 77 | 52 | 0.0 | 0.0 | 0.00 | 0.00 | 0.00 | 90 | 1014.4 |
| 20260904051719 | 77 | 52 | 0.0 | 0.0 | 0.00 | 0.00 | 0.00 | 90 | 1014.4 |
| 20260904051214 | 77 | 52 | 0.0 | 0.0 | 0.00 | 0.00 | 0.00 | 89 | 1014.4 |
| 20260904050714 | 77 | 52 | 0.0 | 0.0 | 0.00 | 0.00 | 0.00 | 89 | 1014.6 |
| 20260904050211 | 78 | 52 | 0.0 | 0.0 | 0.00 | 0.00 | 0.00 | 88 | 1014.6 |
| 20260904045710 | 78 | 52 | 0.0 | 0.0 | 0.00 | 0.00 | 0.00 | 88 | 1014.5 |
| 20260904045205 | 78 | 52 | 0.0 | 0.0 | 0.00 | 0.00 | 0.00 | 88 | 1014.4 |
| 20260904044701 | 78 | 52 | 0.0 | 0.0 | 0.00 | 0.00 | 0.00 | 88 | 1014.5 |
| 20260904044157 | 78 | 52 | 0.0 | 0.0 | 0.00 | 0.00 | 0.00 | 87 | 1014.5 |
| 20260904043653 | 78 | 52 | 0.0 | 0.0 | 0.00 | 0.00 | 0.00 | 87 | 1014.5 |
| 20260904043149 | 78 | 52 | 0.0 | 0.0 | 0.00 | 0.00 | 0.00 | 87 | 1014.4 |
| 20260904042644 | 78 | 52 | 0.0 | 0.0 | 0.00 | 0.00 | 0.00 | 88 | 1014.5 |
| 20260904042140 | 78 | 52 | 0.0 | 0.0 | 0.00 | 0.00 | 0.00 | 89 | 1014.5 |
| 20260904041635 | 78 | 52 | 0.0 | 0.0 | 0.00 | 0.00 | 0.00 | 89 | 1014.6 |
| 20260904041131 | 78 | 52 | 0.0 | 0.0 | 0.00 | 0.00 | 0.00 | 89 | 1014.5 |
| 20260904040627 | 78 | 52 | 0.0 | 0.0 | 0.00 | 0.00 | 0.00 | 89 | 1014.5 |
| 20260904040123 | 78 | 52 | 0.0 | 0.0 | 0.00 | 0.00 | 0.00 | 90 | 1014.6 |
| 20260904035619 | 78 | 52 | 0.0 | 0.0 | 0.00 | 0.00 | 0.00 | 89 | 1014.5 |
| 20260904035113 | 79 | 52 | 0.0 | 0.0 | 0.00 | 0.00 | 0.00 | 88 | 1014.5 |
| 20260904034607 | 79 | 52 | 0.0 | 0.0 | 0.00 | 0.00 | 0.00 | 88 | 1014.5 |
| 20260904034103 | 79 | 52 | 0.0 | 0.0 | 0.00 | 0.00 | 0.00 | 87 | 1014.5 |
| 20260904033559 | 79 | 52 | 0.0 | 0.0 | 0.00 | 0.00 | 0.00 | 87 | 1014.5 |
| 20260904033056 | 79 | 52 | 0.0 | 0.0 | 0.00 | 0.00 | 0.00 | 86 | 1014.5 |
| 20260904032551 | 79 | 52 | 0.0 | 0.0 | 0.00 | 0.00 | 0.00 | 86 | 1014.6 |
| 20260904032049 | 80 | 52 | 0.0 | 0.0 | 0.00 | 0.00 | 0.00 | 86 | 1014.5 |
| 20260904031544 | 80 | 52 | 0.0 | 0.0 | 0.00 | 0.00 | 0.00 | 87 | 1014.5 |
| 20260904031040 | 79 | 52 | 0.0 | 0.0 | 0.00 | 0.00 | 0.00 | 87 | 1014.6 |
| 20260904030535 | 79 | 52 | 0.0 | 0.0 | 0.00 | 0.00 | 0.00 | 87 | 1014.6 |
| 20260904030031 | 80 | 52 | 0.0 | 0.0 | 0.00 | 0.00 | 0.00 | 87 | 1014.7 |
| 20260904025527 | 80 | 52 | 0.0 | 0.0 | 0.00 | 0.00 | 0.00 | 87 | 1014.7 |
| 20260904025026 | 80 | 52 | 0.0 | 0.0 | 0.00 | 0.00 | 0.00 | 86 | 1014.6 |
| 20260904024522 | 80 | 51 | 0.0 | 0.0 | 0.00 | 0.00 | 0.00 | 85 | 1014.7 |
| 20260904024017 | 80 | 51 | 0.0 | 0.0 | 0.00 | 0.00 | 0.00 | 85 | 1014.6 |
| 20260904023514 | 80 | 51 | 0.0 | 0.0 | 0.00 | 0.00 | 0.00 | 85 | 1014.5 |
| 20260904023009 | 80 | 51 | 0.0 | 0.0 | 0.00 | 0.00 | 0.00 | 84 | 1014.6 |
| 20260904022504 | 80 | 52 | 0.0 | 0.0 | 0.00 | 0.00 | 0.00 | 84 | 1014.6 |
| 20260904022001 | 81 | 52 | 0.0 | 0.0 | 0.00 | 0.00 | 0.00 | 84 | 1014.4 |
| 20260904021456 | 81 | 52 | 0.0 | 0.0 | 0.00 | 0.00 | 0.00 | 83 | 1014.5 |
| 20260904020956 | 81 | 52 | 0.0 | 0.0 | 0.00 | 0.00 | 0.00 | 82 | 1014.4 |
| 20260904020452 | 81 | 51 | 0.0 | 0.0 | 0.00 | 0.00 | 0.00 | 82 | 1014.4 |
| 20260904015950 | 81 | 51 | 0.0 | 0.0 | 0.00 | 0.00 | 0.00 | 82 | 1014.3 |
| 20260904015446 | 81 | 51 | 0.0 | 0.0 | 0.00 | 0.00 | 0.00 | 81 | 1014.2 |
| 20260904014944 | 82 | 51 | 0.0 | 0.0 | 0.00 | 0.00 | 0.00 | 81 | 1014.0 |
| 20260904014439 | 82 | 51 | 0.0 | 0.0 | 0.00 | 0.00 | 0.00 | 81 | 1014.1 |
| 20260904013935 | 82 | 51 | 0.0 | 0.0 | 0.00 | 0.00 | 0.00 | 81 | 1014.0 |
| 20260904013430 | 82 | 51 | 0.0 | 0.0 | 0.00 | 0.00 | 0.00 | 80 | 1014.0 |
| 20260904012927 | 82 | 51 | 0.0 | 0.0 | 0.00 | 0.00 | 0.00 | 79 | 1013.9 |
| 20260904012421 | 83 | 51 | 0.0 | 0.0 | 0.00 | 0.00 | 0.00 | 79 | 1014.0 |
| 20260904011915 | 83 | 51 | 0.0 | 0.0 | 0.00 | 0.00 | 0.00 | 78 | 1013.9 |
| 20260904011410 | 84 | 51 | 0.0 | 0.0 | 0.00 | 0.00 | 0.00 | 77 | 1013.9 |
| 20260904010905 | 84 | 51 | 0.0 | 0.0 | 0.00 | 0.00 | 0.00 | 76 | 1013.8 |
| 20260904010402 | 84 | 51 | 0.0 | 0.0 | 0.00 | 0.00 | 0.00 | 74 | 1013.8 |
| 20260904005856 | 84 | 51 | 0.0 | 0.0 | 0.00 | 0.00 | 0.00 | 75 | 1013.9 |
| 20260904005352 | 85 | 52 | 0.0 | 0.0 | 0.00 | 0.00 | 0.00 | 73 | 1013.8 |
| 20260904004847 | 85 | 52 | 0.0 | 0.0 | 0.00 | 0.00 | 0.00 | 72 | 1013.8 |
| 20260904004343 | 86 | 52 | 0.0 | 0.0 | 0.00 | 0.00 | 0.00 | 71 | 1013.7 |
| 20260904003843 | 86 | 52 | 0.0 | 0.0 | 0.00 | 0.00 | 0.00 | 71 | 1013.7 |
| 20260904003339 | 86 | 52 | 0.0 | 0.0 | 0.00 | 0.00 | 0.00 | 70 | 1013.8 |
| 20260904002834 | 87 | 52 | 0.0 | 0.0 | 0.00 | 0.00 | 0.00 | 70 | 1013.6 |
| 20260904002331 | 87 | 52 | 0.0 | 0.0 | 0.00 | 0.00 | 0.00 | 69 | 1013.7 |
| 20260904001830 | 87 | 52 | 0.0 | 0.9 | 0.00 | 0.00 | 0.00 | 68 | 1013.8 |
| 20260904001326 | 88 | 51 | 0.0 | 0.0 | 0.00 | 0.00 | 0.00 | 67 | 1013.8 |
| 20260904000821 | 88 | 52 | 0.0 | 0.0 | 0.00 | 0.00 | 0.00 | 69 | 1013.7 |
| 20260904000319 | 89 | 52 | 0.0 | 0.0 | 0.00 | 0.00 | 0.00 | 68 | 1013.8 |
| 20260903235814 | 89 | 51 | 0.0 | 0.0 | 0.00 | 0.00 | 0.00 | 67 | 1013.6 |
| 20260903235311 | 89 | 51 | 0.0 | 0.0 | 0.00 | 0.00 | 0.00 | 64 | 1013.6 |
| 20260903234809 | 90 | 51 | 0.0 | 0.0 | 0.00 | 0.00 | 0.00 | 64 | 1013.7 |
| 20260903234306 | 91 | 51 | 0.0 | 0.0 | 0.00 | 0.00 | 0.00 | 62 | 1013.4 |
| 20260903233801 | 91 | 51 | 0.0 | 0.0 | 0.00 | 0.00 | 0.00 | 62 | 1013.4 |
| 20260903233257 | 91 | 51 | 0.0 | 0.0 | 0.00 | 0.00 | 0.00 | 61 | 1013.4 |
| 20260903232756 | 92 | 51 | 0.0 | 0.0 | 0.00 | 0.00 | 0.00 | 58 | 1013.4 |
| 20260903232253 | 93 | 51 | 0.0 | 0.0 | 0.00 | 0.00 | 0.00 | 56 | 1013.4 |
| 20260903231751 | 93 | 52 | 0.0 | 0.0 | 0.00 | 0.00 | 0.00 | 61 | 1013.2 |
| 20260903231247 | 93 | 51 | 0.0 | 0.0 | 0.00 | 0.00 | 0.00 | 59 | 1013.2 |
| 20260903230743 | 92 | 51 | 0.0 | 0.0 | 0.00 | 0.00 | 0.00 | 58 | 1013.4 |
| 20260903230242 | 92 | 51 | 0.0 | 0.0 | 0.00 | 0.00 | 0.00 | 56 | 1013.3 |
| 20260903225739 | 93 | 51 | 0.0 | 0.0 | 0.00 | 0.00 | 0.00 | 60 | 1013.3 |
| 20260903225235 | 92 | 51 | 0.0 | 0.0 | 0.00 | 0.00 | 0.00 | 56 | 1013.2 |
| 20260903224731 | 92 | 55 | 0.0 | 0.0 | 0.00 | 0.00 | 0.00 | 60 | 1013.1 |
| 20260903224227 | 92 | 55 | 0.0 | 0.0 | 0.00 | 0.00 | 0.00 | 56 | 1013.1 |
| 20260903223722 | 93 | 55 | 0.0 | 0.0 | 0.00 | 0.00 | 0.00 | 56 | 1013.1 |
| 20260903223221 | 93 | 56 | 0.0 | 0.0 | 0.00 | 0.00 | 0.00 | 57 | 1013.2 |
| 20260903222715 | 93 | 57 | 0.0 | 0.9 | 0.00 | 0.00 | 0.00 | 56 | 1013.3 |
| 20260903222215 | 93 | 52 | 0.0 | 0.0 | 0.00 | 0.00 | 0.00 | 56 | 1013.4 |
| 20260903221715 | 93 | 61 | 0.0 | 0.0 | 0.00 | 0.00 | 0.00 | 58 | 1013.3 |
| 20260903221214 | 93 | 61 | 0.0 | 0.0 | 0.00 | 0.00 | 0.00 | 54 | 1013.2 |
| 20260903220712 | 93 | 61 | 0.0 | 0.0 | 0.00 | 0.00 | 0.00 | 59 | 1013.3 |
| 20260903220207 | 93 | 61 | 0.0 | 0.0 | 0.00 | 0.00 | 0.00 | 59 | 1013.3 |
| 20260903215706 | 93 | 63 | 0.0 | 0.0 | 0.00 | 0.00 | 0.00 | 55 | 1013.0 |
| 20260903215201 | 93 | 64 | 0.0 | 0.0 | 0.00 | 0.00 | 0.00 | 54 | 1013.2 |
| 20260903214659 | 94 | 57 | 0.0 | 0.0 | 0.00 | 0.00 | 0.00 | 51 | 1013.2 |
| 20260903214155 | 94 | 56 | 0.0 | 0.9 | 0.00 | 0.00 | 0.00 | 54 | 1013.2 |
| 20260903213650 | 95 | 67 | 0.0 | 0.9 | 0.00 | 0.00 | 0.00 | 56 | 1013.3 |
| 20260903213146 | 95 | 63 | 0.0 | 0.0 | 0.00 | 0.00 | 0.00 | 53 | 1013.4 |
| 20260903212642 | 96 | 47 | 0.0 | 0.0 | 0.00 | 0.00 | 0.00 | 52 | 1013.4 |
| 20260903212137 | 96 | 52 | 0.0 | 0.0 | 0.00 | 0.00 | 0.00 | 55 | 1013.3 |
| 20260903211632 | 95 | 49 | 0.0 | 0.0 | 0.00 | 0.00 | 0.00 | 52 | 1013.4 |
| 20260903211129 | 96 | 62 | 0.0 | 0.9 | 0.00 | 0.00 | 0.00 | 50 | 1013.3 |
| 20260903210624 | 97 | 73 | 0.9 | 0.9 | 0.00 | 0.00 | 0.00 | 49 | 1013.5 |
| 20260903210120 | 99 | 58 | 0.0 | 0.0 | 0.00 | 0.00 | 0.00 | 45 | 1013.6 |
| 20260903205619 | 100 | 55 | 0.0 | 0.0 | 0.00 | 0.00 | 0.00 | 44 | 1013.7 |
| 20260903205118 | 99 | 56 | 0.0 | 0.0 | 0.00 | 0.00 | 0.00 | 46 | 1013.6 |
| 20260903204614 | 98 | 89 | 1.7 | 1.7 | 0.00 | 0.00 | 0.00 | 47 | 1013.6 |
| 20260903204110 | 96 | 48 | 0.0 | 0.9 | 0.00 | 0.00 | 0.00 | 49 | 1013.7 |
| 20260903203606 | 95 | 46 | 0.0 | 0.9 | 0.00 | 0.00 | 0.00 | 49 | 1013.6 |
| 20260903203106 | 95 | 54 | 0.0 | 0.0 | 0.00 | 0.00 | 0.00 | 49 | 1013.7 |
| 20260903202601 | 95 | 47 | 0.0 | 0.9 | 0.00 | 0.00 | 0.00 | 50 | 1014.0 |
| 20260903202056 | 96 | 54 | 0.0 | 0.9 | 0.00 | 0.00 | 0.00 | 50 | 1013.9 |
| 20260903201551 | 96 | 53 | 0.0 | 0.0 | 0.00 | 0.00 | 0.00 | 48 | 1013.9 |
| 20260903201050 | 97 | 51 | 0.0 | 0.9 | 0.00 | 0.00 | 0.00 | 48 | 1013.9 |
| 20260903200545 | 98 | 46 | 0.9 | 0.9 | 0.00 | 0.00 | 0.00 | 48 | 1014.0 |
| 20260903200040 | 98 | 58 | 0.0 | 0.0 | 0.00 | 0.00 | 0.00 | 46 | 1014.0 |
| 20260903195536 | 99 | 55 | 0.0 | 0.0 | 0.00 | 0.00 | 0.00 | 44 | 1014.1 |
| 20260903195031 | 100 | 66 | 0.0 | 0.0 | 0.00 | 0.00 | 0.00 | 42 | 1014.3 |
| 20260903194521 | 100 | 56 | 1.7 | 2.6 | 0.00 | 0.00 | 0.00 | 43 | 1014.2 |
| 20260903194017 | 99 | 107 | 1.7 | 1.7 | 0.00 | 0.00 | 0.00 | 45 | 1014.3 |
| 20260903193513 | 100 | 75 | 0.0 | 0.9 | 0.00 | 0.00 | 0.00 | 43 | 1014.3 |
| 20260903193008 | 102 | 31 | 0.9 | 1.7 | 0.00 | 0.00 | 0.00 | 41 | 1014.4 |
| 20260903192505 | 102 | 139 | 2.6 | 5.2 | 0.00 | 0.00 | 0.00 | 41 | 1014.4 |
| 20260903192004 | 101 | 56 | 1.7 | 2.6 | 0.00 | 0.00 | 0.00 | 41 | 1014.7 |
| 20260903191455 | 101 | 56 | 0.0 | 0.9 | 0.00 | 0.00 | 0.00 | 42 | 1014.5 |
| 20260903190954 | 101 | 65 | 1.7 | 1.7 | 0.00 | 0.00 | 0.00 | 45 | 1014.7 |
| 20260903190449 | 101 | 52 | 0.9 | 0.9 | 0.00 | 0.00 | 0.00 | 41 | 1014.7 |
| 20260903185948 | 100 | 210 | 1.7 | 1.7 | 0.00 | 0.00 | 0.00 | 44 | 1014.7 |
| 20260903185444 | 99 | 63 | 0.9 | 1.7 | 0.00 | 0.00 | 0.00 | 47 | 1014.9 |
| 20260903184939 | 98 | 129 | 1.7 | 2.6 | 0.00 | 0.00 | 0.00 | 44 | 1015.0 |
| 20260903184436 | 96 | 31 | 0.0 | 0.9 | 0.00 | 0.00 | 0.00 | 48 | 1015.2 |
| 20260903183936 | 96 | 60 | 0.0 | 0.0 | 0.00 | 0.00 | 0.00 | 47 | 1015.1 |
| 20260903183430 | 96 | 63 | 0.0 | 0.9 | 0.00 | 0.00 | 0.00 | 48 | 1015.1 |
| 20260903182929 | 95 | 57 | 0.0 | 0.0 | 0.00 | 0.00 | 0.00 | 51 | 1015.2 |
| 20260903182428 | 96 | 85 | 0.9 | 0.9 | 0.00 | 0.00 | 0.00 | 49 | 1015.2 |
| 20260903181924 | 96 | 60 | 0.9 | 0.9 | 0.00 | 0.00 | 0.00 | 46 | 1015.3 |
| 20260903181419 | 97 | 136 | 0.9 | 0.9 | 0.00 | 0.00 | 0.00 | 46 | 1015.2 |
| 20260903180912 | 98 | 170 | 1.7 | 1.7 | 0.00 | 0.00 | 0.00 | 45 | 1015.3 |
| 20260903180407 | 99 | 44 | 0.9 | 0.9 | 0.00 | 0.00 | 0.00 | 45 | 1015.3 |
| 20260903175907 | 99 | 36 | 0.9 | 0.9 | 0.00 | 0.00 | 0.00 | 43 | 1015.6 |
| 20260903175407 | 99 | 32 | 0.9 | 0.9 | 0.00 | 0.00 | 0.00 | 46 | 1015.5 |
| 20260903174901 | 99 | 64 | 0.0 | 0.9 | 0.00 | 0.00 | 0.00 | 45 | 1015.4 |
| 20260903174356 | 98 | 95 | 0.9 | 0.9 | 0.00 | 0.00 | 0.00 | 45 | 1015.5 |
| 20260903173850 | 99 | 335 | 1.7 | 1.7 | 0.00 | 0.00 | 0.00 | 43 | 1015.7 |
| 20260903173345 | 99 | 52 | 0.0 | 0.0 | 0.00 | 0.00 | 0.00 | 44 | 1015.7 |
| 20260903172842 | 99 | 65 | 0.0 | 0.9 | 0.00 | 0.00 | 0.00 | 43 | 1015.7 |
| 20260903172336 | 101 | 116 | 1.7 | 2.6 | 0.00 | 0.00 | 0.00 | 40 | 1015.7 |
| 20260903171832 | 100 | 64 | 0.9 | 0.9 | 0.00 | 0.00 | 0.00 | 41 | 1015.7 |
| 20260903171327 | 98 | 31 | 0.9 | 0.9 | 0.00 | 0.00 | 0.00 | 44 | 1015.7 |
| 20260903170826 | 96 | 62 | 0.0 | 0.0 | 0.00 | 0.00 | 0.00 | 47 | 1015.8 |
| 20260903170321 | 96 | 61 | 0.9 | 0.9 | 0.00 | 0.00 | 0.00 | 48 | 1015.9 |
| 20260903165819 | 97 | 48 | 0.0 | 0.0 | 0.00 | 0.00 | 0.00 | 47 | 1015.7 |
| 20260903165314 | 97 | 76 | 0.9 | 0.9 | 0.00 | 0.00 | 0.00 | 44 | 1016.0 |
| 20260903164814 | 97 | 352 | 0.9 | 1.7 | 0.00 | 0.00 | 0.00 | 45 | 1016.1 |
| 20260903164310 | 98 | 210 | 2.6 | 2.6 | 0.00 | 0.00 | 0.00 | 44 | 1015.9 |
| 20260903163808 | 97 | 54 | 0.9 | 0.9 | 0.00 | 0.00 | 0.00 | 46 | 1016.1 |
| 20260903163306 | 97 | 69 | 0.9 | 0.9 | 0.00 | 0.00 | 0.00 | 48 | 1016.1 |
| 20260903162801 | 97 | 187 | 2.6 | 3.5 | 0.00 | 0.00 | 0.00 | 46 | 1016.1 |
| 20260903162257 | 98 | 306 | 3.5 | 3.5 | 0.00 | 0.00 | 0.00 | 45 | 1016.4 |
| 20260903161753 | 98 | 67 | 0.9 | 1.7 | 0.00 | 0.00 | 0.00 | 48 | 1016.4 |
| 20260903161248 | 98 | 70 | 0.9 | 0.9 | 0.00 | 0.00 | 0.00 | 52 | 1016.6 |
| 20260903160744 | 98 | 354 | 2.6 | 3.5 | 0.00 | 0.00 | 0.00 | 46 | 1016.5 |
| 20260903160243 | 98 | 61 | 0.0 | 0.0 | 0.00 | 0.00 | 0.00 | 47 | 1016.5 |
| 20260903155741 | 98 | 56 | 0.0 | 0.9 | 0.00 | 0.00 | 0.00 | 45 | 1016.6 |
| 20260903155236 | 97 | 76 | 0.0 | 0.9 | 0.00 | 0.00 | 0.00 | 48 | 1016.5 |
| 20260903154732 | 96 | 17 | 1.7 | 1.7 | 0.00 | 0.00 | 0.00 | 49 | 1016.3 |
| 20260903154228 | 96 | 74 | 0.9 | 0.9 | 0.00 | 0.00 | 0.00 | 51 | 1016.4 |
| 20260903153723 | 95 | 244 | 1.7 | 1.7 | 0.00 | 0.00 | 0.00 | 52 | 1016.5 |
| 20260903153219 | 96 | 306 | 2.6 | 2.6 | 0.00 | 0.00 | 0.00 | 50 | 1016.6 |
| 20260903152715 | 97 | 331 | 0.9 | 1.7 | 0.00 | 0.00 | 0.00 | 51 | 1016.6 |
| 20260903152211 | 96 | 67 | 0.0 | 0.9 | 0.00 | 0.00 | 0.00 | 51 | 1016.6 |
| 20260903151711 | 95 | 68 | 0.0 | 0.0 | 0.00 | 0.00 | 0.00 | 54 | 1016.6 |
| 20260903151206 | 95 | 17 | 0.9 | 0.9 | 0.00 | 0.00 | 0.00 | 54 | 1016.7 |
| 20260903150701 | 95 | 86 | 0.9 | 1.7 | 0.00 | 0.00 | 0.00 | 55 | 1016.5 |
| 20260903150156 | 95 | 46 | 0.0 | 0.0 | 0.00 | 0.00 | 0.00 | 55 | 1016.6 |
| 20260903145655 | 94 | 59 | 0.0 | 0.0 | 0.00 | 0.00 | 0.00 | 60 | 1016.6 |
| 20260903145150 | 94 | 32 | 0.9 | 0.9 | 0.00 | 0.00 | 0.00 | 59 | 1016.7 |
| 20260903144649 | 93 | 62 | 0.0 | 0.0 | 0.00 | 0.00 | 0.00 | 57 | 1016.6 |